STARLINK-1911, 46749

Orbit data source: Space-Track

STARLINK-1911, 46749 is a payload satellite owned by SpaceX/Seattle (US) in LEO that was launched on Sat, 24 Oct 2020 UTC via an FALCON 9 launch vehicle from the Air Force Eastern Test Range (AFETR). Payload-class satellites include a variety of spacecraft equipped with specific instruments for various scientific and technological missions. These include communications satellites like Starlink; space stations such as the ISS; scientific satellites like the Hubble; Earth observation satellites from companies like Planet Labs, Umbra, and HawkEye 360; GPS; miniature CubeSats for education and research; and military/defense satellites.

Loading next visibility...
Identifier
46749, 2020-074L
Orbit
LEO
Country
Flag of USUS
Related business
Manufacturer
SpaceX/Seattle
Mission
Partially operational Commercial Communications
Bus & Motor
STARLINK, Unknown motor
Mass
260 kg wet, ~248 kg dry
Launch date (UTC)
2020-10-24 (6 years ago)
Launch vehicle
FALCON 9
Launch site
Air Force Eastern Test Range (AFETR)
Object type
Payload
Rocket body
Debris
Shape & HBR
Box + 1 Pan, 10.1 m
Radar Cross Section
13.562 m², Large (>1 m²)

Expand to show TLE details & history
Last TLE update: 7 hours ago

TLE from 7 hours ago
0 STARLINK-1911
1 46749U 20074L   26126.33335648  .00438835  90738-4  97417-3 0  9998
2 46749  53.0391 348.2362 0006624 225.6909 277.0248 15.97358206  6026
Epoch: 2026-05-06T08:00Z
TLE epoch observation values (Epoch: 2026-05-06T08:00:01.999Z)
Latitude
29.09581°
Longitude
159.4262°
Altitude
282.761 km
Speed
7.742 km/s
True Right ascension
09h 34m 31s
True Declination
28° 56' 22"
Sunlit
Object was in daylight at epoch
Visualization orbit readout
Latitude
Unknown
Longitude
Unknown
Altitude
Unknown
Speed
Unknown
Apparent Right ascension
Unknown
Apparent Declination
Unknown
Sunlit
N/A
Visualization observer readout
Local Sidereal Time
22:30:19
Azimuth
Unknown
Elevation
Unknown
Doppler factor
Unknown
Orbital elements
Apogee altitude
286.447 km
Perigee altitude
277.624 km
Semi-major axis
6,660.172 km
Eccentricity
0.00066
Inclination
53.0391°
RAAN
348.2362°
Arg. of periapsis
225.6909°
True anomaly
276.94946°
Mean anomaly
277.0248°
Eccentric anomaly
276.98713°
Mean motion
3.99314 °/min
Orbital period
90.15 mins
BSTAR
0.00097417
Loading maneuver chart data...
Computing Atmospheric mass density...

Documentation

Showing up to 5 results
|